Milwaukee, WI

4:46 AM CST on December 06, 2019 (GMT -0600)
Gen Mitchell International

Weather History for KMKE - November, 2019

Change the Weather History Date:

Friday, November 15, 2019

  Actual Average Record
Temperature  
Mean Temperature 31 °F 39 °F  
Max Temperature 42 °F 46 °F 69 °F (1953)
Min Temperature 20 °F 32 °F 6 °F (1933)
Degree Days  
Heating Degree Days 34 26  
Month to date heating degree days 519 336  
Since 1 July heating degree days 1010 921  
Cooling Degree Days 0 0  
Month to date cooling degree days 0 0  
Year to date cooling degree days 727 641  
Moisture  
Dew Point 21 °F    
Average Humidity 69    
Maximum Humidity 78    
Minimum Humidity 51    
Precipitation  
Precipitation 0.00 in 0.09 in 1.28 in (1960)
Month to date precipitation 0.72 1.36  
Year to date precipitation 42.64 31.37  
Snow  
Snow 0.00 in 0.00 in 1.50 in (1940)
Month to date snowfall 7.2 0.4  
Since 1 July snowfall 13.3 0.7  
Since 1 September snowfall 13.3 0.7  
Snow Depth 2.0 in    
Sea Level Pressure  
Sea Level Pressure 30.37 in    
Wind  
Wind Speed 6 mph ()    
Max Wind Speed 13 mph    
Max Gust Speed 20 mph    
Visibility 9.2 miles    
Events      
T = Trace of Precipitation, MM = Missing Value Source: Averaged Metar Reports

Daily Weather History Graph

Daily Weather History Graph

Search for Another Location

Airport or City:

Astronomy

Nov. 15, 2019 Rise Set
Actual Time 6:43 AM CST 4:28 PM CST
Civil Twilight 6:13 AM CST 4:58 PM CST
Nautical Twilight 5:38 AM CST 5:33 PM CST
Astronomical Twilight 5:05 AM CST 6:06 PM CST
Moon 7:00 PM CST (11/15) 9:42 AM CST (11/15)
Length of Visible Light 10h 45m
Length of Day
9h 44m
Waning Gibbous, 90% of the Moon is Illuminated
Nov 15
Waning Gibbous
Nov 19
Last Quarter
Nov 26
New
Dec 4
First Quarter
Dec 11
Full

Hourly Weather History & Observations

Time (CST) Temp. Windchill Dew Point Humidity Pressure Visibility Wind Dir Wind Speed Gust Speed Precip Events Conditions
12:52 AM 24.1 °F 14.4 °F 17.1 °F 75% 30.28 in 10.0 mi West 9.2 mph - N/A   Partly Cloudy
1:52 AM 24.1 °F 15.2 °F 16.0 °F 71% 30.28 in 10.0 mi WSW 8.1 mph - N/A   Clear
2:52 AM 21.9 °F 14.5 °F 15.1 °F 75% 30.30 in 10.0 mi SW 5.8 mph - N/A   Clear
3:52 AM 21.9 °F 14.5 °F 15.1 °F 75% 30.30 in 9.0 mi WSW 5.8 mph - N/A   Clear
4:52 AM 21.0 °F 16.2 °F 15.1 °F 78% 30.31 in 10.0 mi SW 3.5 mph - N/A   Clear
5:39 AM 21.9 °F 14.5 °F 16.0 °F 78% 30.27 in 9.0 mi SW 5.8 mph - N/A   Mostly Cloudy
5:52 AM 21.9 °F 14.5 °F 16.0 °F 78% 30.31 in 10.0 mi WSW 5.8 mph - N/A   Overcast
6:52 AM 24.1 °F 17.0 °F 17.1 °F 75% 30.32 in 8.0 mi WSW 5.8 mph - N/A   Overcast
7:52 AM 25.0 °F 17.1 °F 18.0 °F 75% 30.34 in 8.0 mi WSW 6.9 mph - N/A   Overcast
8:52 AM 26.1 °F 18.4 °F 19.0 °F 75% 30.35 in 7.0 mi West 6.9 mph - N/A   Overcast
9:52 AM 28.0 °F 21.7 °F 19.0 °F 69% 30.37 in 7.0 mi West 5.8 mph - N/A   Mostly Cloudy
10:39 AM 30.9 °F 23.5 °F 21.0 °F 67% 30.35 in 8.0 mi West 8.1 mph - N/A   Mostly Cloudy
10:52 AM 33.1 °F 27.7 °F 21.9 °F 64% 30.38 in 7.0 mi West 5.8 mph - N/A   Mostly Cloudy
11:52 AM 34.0 °F 27.2 °F 23.0 °F 64% 30.37 in 8.0 mi South 8.1 mph - N/A   Mostly Cloudy
12:52 PM 37.0 °F 34.5 °F 24.1 °F 59% 30.36 in 8.0 mi Variable 3.5 mph - N/A   Mostly Cloudy
1:52 PM 39.9 °F 35.1 °F 24.1 °F 53% 30.36 in 10.0 mi West 6.9 mph - N/A   Mostly Cloudy
2:52 PM 41.0 °F - 24.1 °F 51% 30.38 in 10.0 mi Calm Calm - N/A   Mostly Cloudy
3:52 PM 36.0 °F 29.6 °F 26.1 °F 67% 30.39 in 10.0 mi ENE 8.1 mph - N/A   Mostly Cloudy
4:52 PM 34.0 °F 29.8 °F 25.0 °F 70% 30.41 in 10.0 mi ENE 4.6 mph - N/A   Mostly Cloudy
5:52 PM 34.0 °F 28.8 °F 26.1 °F 73% 30.42 in 10.0 mi NE 5.8 mph - N/A   Mostly Cloudy
6:52 PM 34.0 °F 29.8 °F 25.0 °F 70% 30.44 in 10.0 mi NE 4.6 mph - N/A   Scattered Clouds
7:52 PM 34.0 °F 28.0 °F 25.0 °F 70% 30.44 in 10.0 mi NE 6.9 mph - N/A   Partly Cloudy
8:52 PM 34.0 °F 28.0 °F 25.0 °F 70% 30.45 in 10.0 mi NE 6.9 mph - N/A   Scattered Clouds
9:52 PM 35.1 °F 28.6 °F 25.0 °F 67% 30.45 in 10.0 mi ENE 8.1 mph - N/A   Scattered Clouds
10:52 PM 35.1 °F 28.6 °F 24.1 °F 64% 30.46 in 10.0 mi ENE 8.1 mph - N/A   Scattered Clouds
11:52 PM 34.0 °F 27.2 °F 25.0 °F 70% 30.46 in 10.0 mi East 8.1 mph - N/A   Scattered Clouds